Location: Newark
(33.6333°S, 78.8500°W)
Time: 00:43:37
(UTC+00:00)

Tiros 1 - Pass Details

Date: 18 October 2019
Orbit: 630 x 664 km, 48.4° (Epoch: 21 November)

Event Time Altitude Azimuth Distance (km) Brightness Sun altitude
Rises 01:58:00 0° 231° (SW) 2,940 11.8 -28.9°
Reaches altitude 10° 02:00:20 10° 229° (SW) 2,029 10.6 -29.3°
Enters shadow 02:03:31 43° 219° (SW) 901 8.2 -29.8°
Maximum altitude 02:05:01 77° 142° (SE) 660 - -30.0°
Drops below altitude 10° 02:09:41 10° 56° (NE) 2,026 - -30.8°
Sets 02:12:00 0° 54° (NE) 2,934 - -31.2°
